Regional Weather Roundup
Issued by NWS Spokane, WA

Home | Current Version | Previous Version | Text Only | Print | Product List | Glossary On
Versions: 1 2 3 4 5 6 7 8 9 10 11 12 13 14 15 16 17 18 19 20 21 22 23 24 25 26 27 28 29 30 31 32 33 34 35 36 37 38 39 40 41 42 43 44 45 46 47 48 49 50
000
NZUS01 KOTX 180510
RWROTX
EASTERN WASHINGTON/NORTHERN IDAHO ROUNDUP
NATIONAL WEATHER SERVICE, SPOKANE WA
1000 PM PDT FRI APR 17 2015

Note: "fair" indicated few or no clouds below 12,000 feet with no
significant weather and/or obstructions to visibility.

...NORTHEAST WASHINGTON AND NORTHERN IDAHO PANHANDLE...

CITY           SKY/WX    TMP DP  RH WIND       PRES   REMARKS
SPOKANE INTL   FAIR      55  36  48 SW13      30.07S
SPOKANE DOWNTO FAIR      55  37  50 CALM      30.07S
COEUR D ALENE  FAIR      54  36  50 CALM      30.09R
DEER PARK      FAIR      51  36  56 W3        30.06S
SANDPOINT      FAIR      46  37  71 SW3       30.04S
BONNERS FERRY  MOCLDY    57  36  44 N5        30.01R

...SOUTHEAST WASHINGTON AND SOUTHERN IDAHO PANHANDLE...

CITY           SKY/WX    TMP DP  RH WIND       PRES   REMARKS
WALLA WALLA    FAIR      57  40  52 SE8       30.10R
PULLMAN/MOSCOW FAIR      47  37  68 CALM      30.12S
LEWISTON       FAIR      56  37  49 S5        30.09R
LOWELL           N/A     48  42  80 CALM      30.12R

...COLUMBIA BASIN...

CITY           SKY/WX    TMP DP  RH WIND       PRES   REMARKS
EPHRATA        FAIR      63  31  30 NW22G29   30.07R
MOSES LAKE     FAIR      59  33  37 NW12      30.10R
TRI CITIES     FAIR      57  39  51 NW10      30.09R
HERMISTON      FAIR      56  38  50 S9        30.08R
PENDLETON      FAIR      52  37  56 SE9       30.10S

...EAST SLOPES CASCADES...

CITY           SKY/WX    TMP DP  RH WIND       PRES   REMARKS
THE DALLES     FAIR      68  37  32 W28G38    30.11R
YAKIMA         FAIR      62  33  33 NW10      30.16R
ELLENSBURG     FAIR      56  32  40 NW18G25   30.16R
WENATCHEE      FAIR      62  31  31 NW17      30.15R
OMAK           FAIR      61  27  27 NW18      30.09R

...SOUTHERN BRITISH COLUMBIA...

CITY           SKY/WX    TMP DP  RH WIND       PRES   REMARKS
PENTICTON      PTCLDY    57  32  38 N7        30.18R
CRANBROOK      PTCLDY    52  32  46 NW6       30.00R

...WESTERN MONTANA...

CITY           SKY/WX    TMP DP  RH WIND       PRES   REMARKS
MISSOULA       FAIR      51  30  44 N7        30.04R

...NEIGHBORING CITIES...

CITY           SKY/WX    TMP DP  RH WIND       PRES   REMARKS
SEATTLE        FAIR      56  44  64 N8        30.29R
CALGARY        PTCLDY    43  19  39 NW7       30.00R



USA.gov is the U.S. government's official web portal to all federal, state and local government web resources and services.